Marfa, TX

4:05 PM CST on December 15, 2017 (GMT -0600)
Marfa Municipal

Weather History for KMRF - December, 2012

Change the Weather History Date:

Tuesday, December 4, 2012

  Actual Average Record
Temperature  
Mean Temperature 52 °F -  
Max Temperature 64 °F 57 °F 73 °F (2013)
Min Temperature 39 °F 28 °F 10 °F (2006)
Degree Days  
Heating Degree Days 14    
Growing Degree Days 2 (Base 50)    
Moisture  
Dew Point 27 °F    
Average Humidity 43    
Maximum Humidity 70    
Minimum Humidity 26    
Precipitation  
Precipitation 0.00 in - - ()
Sea Level Pressure  
Sea Level Pressure 30.31 in    
Wind  
Wind Speed 4 mph (NE)    
Max Wind Speed 16 mph    
Max Gust Speed 21 mph    
Visibility 10 miles    
Events      
Averages and records for this station are not official NWS values.
T = Trace of Precipitation, MM = Missing Value Source: NWS Daily Summary

Daily Weather History Graph

Daily Weather History Graph

Search for Another Location

Airport or City:

Trip Planner

Search our weather history database for the weather conditions in past years. The results will help you decide how hot, cold, wet, or windy it might be!

Date:

Astronomy

Dec. 04, 2012 Rise Set
Actual Time 7:37 AM CST 5:55 PM CST
Civil Twilight 7:11 AM CST 6:21 PM CST
Nautical Twilight 6:41 AM CST 6:51 PM CST
Astronomical Twilight 6:12 AM CST 7:20 PM CST
Moon 11:28 PM CST (12/4) 11:47 AM CST (12/4)
Length of Visible Light 11h 09m
Length of Day
10h 17m
Waning Gibbous, 69% of the Moon is Illuminated
Dec 4
Waning Gibbous
Dec 6
Last Quarter
Dec 13
New
Dec 19
First Quarter
Dec 28
Full

Hourly Weather History & Observations

Time (CST) Temp. Windchill Dew Point Humidity Pressure Visibility Wind Dir Wind Speed Gust Speed Precip Events Conditions
12:15 AM 42.8 °F - 21.2 °F 42% 30.21 in 10.0 mi Calm Calm - N/A   Clear
12:35 AM 44.6 °F - 21.2 °F 39% 30.21 in 10.0 mi Calm Calm - N/A   Clear
12:55 AM 41.0 °F - 19.4 °F 42% 30.20 in 10.0 mi Calm Calm - N/A   Clear
1:15 AM 39.2 °F - 19.4 °F 45% 30.20 in 10.0 mi Calm Calm - N/A   Clear
1:35 AM 42.8 °F - 21.2 °F 42% 30.20 in 10.0 mi Calm Calm - N/A   Clear
1:55 AM 42.8 °F - 21.2 °F 42% 30.20 in 10.0 mi Calm Calm - N/A   Clear
2:15 AM 42.8 °F - 21.2 °F 42% 30.21 in 10.0 mi Calm Calm - N/A   Clear
2:55 AM 42.8 °F - 23.0 °F 46% 30.22 in 10.0 mi Calm Calm - N/A   Clear
3:15 AM 44.6 °F - 23.0 °F 43% 30.22 in 10.0 mi Calm Calm - N/A   Clear
3:35 AM 44.6 °F - 23.0 °F 43% 30.22 in 10.0 mi Calm Calm - N/A   Clear
3:55 AM 44.6 °F - 24.8 °F 46% 30.22 in 10.0 mi Calm Calm - N/A   Clear
4:15 AM 41.0 °F - 23.0 °F 49% 30.22 in 10.0 mi Calm Calm - N/A   Clear
4:35 AM 41.0 °F - 23.0 °F 49% 30.22 in 10.0 mi Calm Calm - N/A   Clear
4:55 AM 39.2 °F - 21.2 °F 49% 30.23 in 10.0 mi Calm Calm - N/A   Clear
5:15 AM 42.8 °F - 21.2 °F 42% 30.22 in 10.0 mi Calm Calm - N/A   Clear
5:35 AM 41.0 °F - 21.2 °F 45% 30.23 in 10.0 mi Calm Calm - N/A   Clear
5:55 AM 39.2 °F - 21.2 °F 49% 30.24 in 10.0 mi Calm Calm - N/A   Clear
6:15 AM 42.8 °F - 23.0 °F 46% 30.24 in 10.0 mi Calm Calm - N/A   Clear
6:35 AM 41.0 °F - 23.0 °F 49% 30.25 in 10.0 mi Calm Calm - N/A   Clear
6:55 AM 39.2 °F - 21.2 °F 49% 30.26 in 10.0 mi Calm Calm - N/A   Clear
7:15 AM 39.2 °F - 23.0 °F 52% 30.27 in 10.0 mi Calm Calm - N/A   Clear
7:35 AM 39.2 °F - 23.0 °F 52% 30.28 in 10.0 mi Calm Calm - N/A   Clear
7:55 AM 39.2 °F - 24.8 °F 56% 30.29 in 10.0 mi Calm Calm - N/A   Clear
8:15 AM 46.4 °F - 28.4 °F 50% 30.30 in 10.0 mi Calm Calm - N/A   Clear
8:35 AM 50.0 °F - 26.6 °F 40% 30.31 in 10.0 mi Calm Calm - N/A   Clear
8:55 AM 53.6 °F - 28.4 °F 38% 30.32 in 10.0 mi Calm Calm - N/A   Clear
9:15 AM 55.4 °F - 28.4 °F 36% 30.32 in 10.0 mi NNE 10.4 mph - N/A   Clear
9:35 AM 55.4 °F - 26.6 °F 33% 30.33 in 10.0 mi NNE 13.8 mph - N/A   Clear
9:55 AM 55.4 °F - 26.6 °F 33% 30.35 in 10.0 mi North 12.7 mph - N/A   Clear
10:15 AM 57.2 °F - 28.4 °F 33% 30.35 in 10.0 mi North 13.8 mph - N/A   Clear
10:35 AM 59.0 °F - 26.6 °F 29% 30.36 in 10.0 mi NNE 16.1 mph 20.7 mph N/A   Clear
10:55 AM 59.0 °F - 28.4 °F 31% 30.36 in 10.0 mi NNE 11.5 mph - N/A   Clear
11:15 AM 60.8 °F - 28.4 °F 29% 30.37 in 10.0 mi NE 10.4 mph - N/A   Clear
11:35 AM 60.8 °F - 28.4 °F 29% 30.36 in 10.0 mi NNE 8.1 mph - N/A   Clear
11:55 AM 62.6 °F - 28.4 °F 27% 30.36 in 10.0 mi Calm Calm - N/A   Clear
12:15 PM 62.6 °F - 28.4 °F 27% 30.36 in 10.0 mi Calm Calm - N/A   Clear
12:35 PM 62.6 °F - 28.4 °F 27% 30.35 in 10.0 mi ENE 11.5 mph 16.1 mph N/A   Clear
12:55 PM 64.4 °F - 28.4 °F 26% 30.35 in 10.0 mi ENE 11.5 mph 17.3 mph N/A   Clear
1:15 PM 62.6 °F - 28.4 °F 27% 30.35 in 10.0 mi NE 8.1 mph - N/A   Clear
1:35 PM 64.4 °F - 30.2 °F 28% 30.34 in 10.0 mi East 13.8 mph - N/A   Clear
1:55 PM 62.6 °F - 30.2 °F 30% 30.34 in 10.0 mi ENE 10.4 mph 16.1 mph N/A   Clear
2:15 PM 64.4 °F - 30.2 °F 28% 30.34 in 10.0 mi NNE 12.7 mph - N/A   Clear
2:35 PM 64.4 °F - 30.2 °F 28% 30.33 in 10.0 mi NE 12.7 mph 17.3 mph N/A   Clear
2:55 PM 64.4 °F - 30.2 °F 28% 30.33 in 10.0 mi ENE 11.5 mph - N/A   Clear
3:15 PM 64.4 °F - 30.2 °F 28% 30.33 in 10.0 mi NE 10.4 mph - N/A   Clear
3:35 PM 62.6 °F - 30.2 °F 30% 30.34 in 10.0 mi NE 11.5 mph - N/A   Clear
3:55 PM 64.4 °F - 30.2 °F 28% 30.33 in 10.0 mi NE 10.4 mph - N/A   Clear
4:15 PM 62.6 °F - 32.0 °F 32% 30.33 in 10.0 mi NE 11.5 mph - N/A   Clear
4:35 PM 62.6 °F - 32.0 °F 32% 30.34 in 10.0 mi ENE 16.1 mph - N/A   Clear
4:55 PM 60.8 °F - 32.0 °F 34% 30.34 in 10.0 mi ENE 13.8 mph - N/A   Clear
5:15 PM 57.2 °F - 32.0 °F 38% 30.35 in 10.0 mi ENE 15.0 mph - N/A   Clear
5:35 PM 55.4 °F - 32.0 °F 41% 30.35 in 10.0 mi NE 11.5 mph - N/A   Clear
5:55 PM 53.6 °F - 32.0 °F 44% 30.35 in 10.0 mi NE 10.4 mph - N/A   Clear
6:15 PM 53.6 °F - 32.0 °F 44% 30.35 in 10.0 mi NE 10.4 mph - N/A   Clear
6:35 PM 51.8 °F - 32.0 °F 47% 30.35 in 10.0 mi NNE 9.2 mph - N/A   Clear
6:55 PM 51.8 °F - 32.0 °F 47% 30.35 in 10.0 mi North 5.8 mph - N/A   Clear
7:15 PM 51.8 °F - 32.0 °F 47% 30.35 in 10.0 mi NE 10.4 mph - N/A   Clear
7:35 PM 50.0 °F - 32.0 °F 50% 30.35 in 10.0 mi NNE 5.8 mph - N/A   Clear
7:55 PM 48.2 °F - 32.0 °F 54% 30.36 in 10.0 mi Calm Calm - N/A   Clear
8:15 PM 48.2 °F - 32.0 °F 54% 30.35 in 10.0 mi NE 9.2 mph - N/A   Clear
8:35 PM 46.4 °F 43.5 °F 32.0 °F 57% 30.36 in 10.0 mi NNE 5.8 mph - N/A   Clear
8:55 PM 46.4 °F 43.5 °F 33.8 °F 62% 30.36 in 10.0 mi NNE 5.8 mph - N/A   Clear
9:15 PM 46.4 °F 41.9 °F 32.0 °F 57% 30.35 in 10.0 mi NE 9.2 mph - N/A   Clear
9:35 PM 46.4 °F 42.4 °F 30.2 °F 53% 30.35 in 10.0 mi NE 8.1 mph - N/A   Clear
9:55 PM 44.6 °F 41.4 °F 30.2 °F 57% 30.36 in 10.0 mi NNW 5.8 mph - N/A   Clear
10:15 PM 42.8 °F - 30.2 °F 61% 30.36 in 10.0 mi Calm Calm - N/A   Clear
10:35 PM 39.2 °F - 28.4 °F 65% 30.36 in 10.0 mi Calm Calm - N/A   Clear
10:55 PM 39.2 °F - 30.2 °F 70% 30.37 in 10.0 mi Calm Calm - N/A   Clear
11:15 PM 39.2 °F - 30.2 °F 70% 30.36 in 10.0 mi Calm Calm - N/A   Clear
11:35 PM 39.2 °F - 30.2 °F 70% 30.37 in 10.0 mi Calm Calm - N/A   Clear
11:55 PM 39.2 °F - 30.2 °F 70% 30.37 in 10.0 mi Calm Calm - N/A   Clear